Location: Newark
(44.3248°N, 23.7839°E)
Time: 19:16:40
(UTC+00:00)

X-37B - Pass Details

Date: 18 June 2023
Orbit: 277 x 277 km, 45.0° (Epoch: 01 November)

Event Time Altitude Azimuth Distance (km) Brightness Sun altitude
Exits shadow 00:47:08 30° 284° (WNW) 535 1.1 -15.0°
Maximum altitude 00:48:09 72° 3° (N) 295 0.1 -14.9°
Drops below altitude 10° 00:50:36 10° 89° (E) 1,101 3.4 -14.6°
Sets 00:52:31 0° 91° (E) 1,914 4.6 -14.4°
